sat.trackr.live / text

‹ back to catalog

GEESAT-6 04

NORAD 65716 · 2025-214E

PAYLOAD ACTIVE UNKNOWN

§ Identity

Operator
Country
PRC
Launch date
2025-09-24
Launch site
YSLA
Launch vehicle
Mass (kg)
RCS (m²)

External: N2YO · Heavens-Above · Gunter

§ Orbital elements

Epoch: 2026-05-25T04:29:45.901248Z

Period
97.08 min
Inclination
49.9865°
Eccentricity
0.0009270
Mean motion
14.83283431 rev/d
Perigee alt
612.5 km
Apogee alt
625.5 km
Semi-major
6,997.1 km
B*
2.1663e-4
RAAN
54.7835°
Arg perigee
136.4112°
Mean anomaly
223.7560°
Rev number
3,609

§ Raw data

GEESAT-6 041 65716U 25214E   26145.18733682  .00001565  00000+0  21663-3 0  99922 65716  49.9865  54.7835 0009270 136.4112 223.7560 14.83283431 36096

JSON: /api/v1/satellites/65716 · /tle

For live sub-satellite position, see the globe view (requires WebGL).

§ Visibility from observer

Set your observer location to see the next 7 days of passes ≥ 10°. The values pass through the URL so the page stays shareable.

No JS? Fill the form by hand. The geolocation button needs JavaScript.